| time (UTC) | temp F | wind direction | speed MPH | gust MPH | rain 1hr in | rain 24hr in | rain mn in | humidity % | barometer mb |
| 20260504231550 | 42 | 250 | 2.0 | 12.0 | 0.00 | 0.06 | 0.06 | 62 | 1000.2 |
| 20260504230113 | 42 | 248 | 4.0 | 16.0 | 0.00 | 0.06 | 0.06 | 63 | 1000.1 |
| 20260504224605 | 42 | 290 | 4.0 | 17.0 | 0.00 | 0.06 | 0.06 | 64 | 999.9 |
| 20260504223058 | 42 | 272 | 4.0 | 12.0 | 0.00 | 0.06 | 0.06 | 63 | 999.8 |
| 20260504221556 | 42 | 320 | 3.0 | 18.0 | 0.00 | 0.06 | 0.06 | 63 | 999.8 |
| 20260504220104 | 42 | 236 | 4.0 | 16.0 | 0.00 | 0.06 | 0.06 | 63 | 999.5 |
| 20260504214559 | 43 | 288 | 4.0 | 14.0 | 0.00 | 0.06 | 0.06 | 64 | 999.3 |
| 20260504213110 | 43 | 264 | 4.0 | 14.0 | 0.00 | 0.06 | 0.06 | 64 | 998.9 |
| 20260504211555 | 43 | 246 | 7.0 | 18.0 | 0.00 | 0.06 | 0.06 | 63 | 998.9 |
| 20260504210105 | 44 | 311 | 5.0 | 16.0 | 0.00 | 0.06 | 0.06 | 63 | 998.9 |
| 20260504204603 | 44 | 269 | 5.0 | 19.0 | 0.00 | 0.06 | 0.06 | 64 | 998.9 |
| 20260504203052 | 44 | 292 | 5.0 | 18.0 | 0.00 | 0.06 | 0.06 | 65 | 998.3 |
| 20260504201558 | 45 | 20 | 5.0 | 12.0 | 0.00 | 0.06 | 0.06 | 68 | 998.3 |
| 20260504200054 | 43 | 276 | 4.0 | 11.0 | 0.00 | 0.06 | 0.06 | 71 | 998.3 |
| 20260504194630 | 43 | 292 | 2.0 | 15.0 | 0.00 | 0.06 | 0.06 | 70 | 998.0 |
| 20260504193103 | 45 | 234 | 5.0 | 17.0 | 0.00 | 0.06 | 0.06 | 66 | 997.7 |
| 20260504191548 | 44 | 270 | 5.0 | 14.0 | 0.00 | 0.06 | 0.06 | 66 | 997.6 |
| 20260504184552 | 46 | 38 | 3.0 | 16.0 | 0.00 | 0.06 | 0.06 | 68 | 997.3 |
| 20260504183059 | 45 | 248 | 3.0 | 19.0 | 0.00 | 0.06 | 0.06 | 75 | 997.0 |
| 20260504181552 | 43 | 258 | 6.0 | 15.0 | 0.00 | 0.06 | 0.06 | 76 | 996.9 |
| 20260504180131 | 43 | 269 | 3.0 | 9.0 | 0.00 | 0.06 | 0.06 | 83 | 996.5 |
| 20260504174552 | 43 | 250 | 2.0 | 11.0 | 0.00 | 0.06 | 0.06 | 79 | 996.3 |
| 20260504173052 | 43 | 298 | 4.0 | 14.0 | 0.00 | 0.06 | 0.06 | 85 | 995.8 |
| 20260504171553 | 45 | 229 | 4.0 | 16.0 | 0.00 | 0.06 | 0.06 | 74 | 995.8 |
| 20260504120108 | 43 | 290 | 1.0 | 11.0 | 0.03 | 0.06 | 0.06 | 94 | 991.2 |
| 20260504100111 | 50 | 266 | 3.0 | 19.0 | 0.00 | 0.00 | 0.00 | 70 | 991.6 |
| 20260504081601 | 57 | 301 | 5.0 | 21.0 | 0.00 | 0.00 | 0.00 | 44 | 990.3 |
| 20260504044549 | 54 | 219 | 3.0 | 9.0 | 0.00 | 0.00 | 0.00 | 43 | 995.5 |
| 20260504043102 | 55 | 218 | 5.0 | 11.0 | 0.00 | 0.00 | 0.00 | 43 | 995.9 |
| 20260504041551 | 55 | 190 | 3.0 | 11.0 | 0.00 | 0.00 | 0.00 | 42 | 996.1 |
| 20260504040104 | 55 | 227 | 3.0 | 12.0 | 0.00 | 0.00 | 0.00 | 43 | 996.6 |
| 20260504034610 | 55 | 213 | 4.0 | 9.0 | 0.00 | 0.01 | 0.00 | 42 | 997.0 |
| 20260504033100 | 55 | 185 | 3.0 | 12.0 | 0.00 | 0.01 | 0.00 | 43 | 997.5 |
| 20260504031552 | 54 | 210 | 3.0 | 11.0 | 0.00 | 0.01 | 0.00 | 43 | 998.0 |
| 20260504030055 | 53 | 201 | 2.0 | 10.0 | 0.00 | 0.01 | 0.00 | 44 | 998.3 |
| 20260504024554 | 53 | 217 | 2.0 | 7.0 | 0.00 | 0.02 | 0.00 | 45 | 998.5 |
| 20260504023055 | 54 | 227 | 2.0 | 9.0 | 0.00 | 0.02 | 0.00 | 43 | 998.8 |
| 20260504021557 | 54 | 196 | 2.0 | 5.0 | 0.00 | 0.02 | 0.00 | 44 | 999.3 |
| 20260504020104 | 55 | 205 | 0.0 | 3.0 | 0.00 | 0.02 | 0.00 | 42 | 999.3 |
| 20260504014557 | 56 | 205 | 0.0 | 5.0 | 0.00 | 0.02 | 0.00 | 41 | 999.3 |
| 20260504013053 | 56 | 219 | 1.0 | 3.0 | 0.00 | 0.02 | 0.00 | 40 | 999.7 |
| 20260504011644 | 57 | 238 | 1.0 | 4.0 | 0.00 | 0.02 | 0.00 | 41 | 1000.2 |
| 20260504011550 | 57 | 238 | 1.0 | 4.0 | 0.00 | 0.02 | 0.00 | 41 | 1000.2 |
| 20260504010051 | 58 | 0 | 1.0 | 4.0 | 0.00 | 0.02 | 0.00 | 40 | 1000.4 |
| 20260504004551 | 59 | 199 | 0.0 | 7.0 | 0.00 | 0.02 | 0.00 | 38 | 1000.6 |
| 20260504003051 | 60 | 0 | 2.0 | 9.0 | 0.00 | 0.02 | 0.00 | 36 | 1000.9 |
| 20260504001553 | 61 | 241 | 2.0 | 9.0 | 0.00 | 0.02 | 0.00 | 37 | 1001.1 |
| 20260504000056 | 61 | 270 | 2.0 | 9.0 | 0.00 | 0.02 | 0.00 | 35 | 1001.5 |
| 20260503234552 | 61 | 270 | 2.0 | 7.0 | 0.00 | 0.02 | 0.00 | 35 | 1001.6 |
| 20260503233053 | 62 | 290 | 2.0 | 7.0 | 0.00 | 0.02 | 0.00 | 33 | 1001.8 |